This is the latest recevied weather packets stored in our database for station/object KD5UMO-1. If no packets are shown the sender has not sent any weather packets the latest 10 day(s).
| Time | Temp. | Humidity | Pressure | Rain* | Wind** | Luminosity | Snow |
|---|---|---|---|---|---|---|---|
| 1777779349 | 17.78° C | 56% | 1019.9 hPa | 0 mm | - | 0 W/m² | - |
| 1777779047 | 17.78° C | 56% | 1019.7 hPa | 0 mm | - | 0 W/m² | - |
| 1777778745 | 17.78° C | 56% | 1019.9 hPa | 0 mm | - | 0 W/m² | - |
| 1777778443 | 17.78° C | 57% | 1019.6 hPa | 0 mm | - | 0 W/m² | - |
| 1777778140 | 17.22° C | 57% | 1019.9 hPa | 0 mm | - | 0 W/m² | - |
| 1777777837 | 17.78° C | 55% | 1019.8 hPa | 0 mm | - | 0 W/m² | - |
| 1777777533 | 18.33° C | 54% | 1019.6 hPa | 0 mm | - | 0 W/m² | - |
| 1777777231 | 18.33° C | 54% | 1019.7 hPa | 0 mm | - | 0 W/m² | - |
| 1777776927 | 18.33° C | 55% | 1019.4 hPa | 0 mm | - | 0 W/m² | - |
| 1777776625 | 17.78° C | 55% | 1019.8 hPa | 0 mm | - | 0 W/m² | - |
| 1777776321 | 17.78° C | 55% | 1019.6 hPa | 0 mm | - | 0 W/m² | - |
| 1777776019 | 18.33° C | 54% | 1019.4 hPa | 0 mm | - | 0 W/m² | - |
| 1777775715 | 18.89° C | 53% | 1019.5 hPa | 0 mm | - | 0 W/m² | - |
| 1777775413 | 18.89° C | 53% | 1019.5 hPa | 0 mm | - | 0 W/m² | - |
| 1777775108 | 18.89° C | 53% | 1019.6 hPa | 0 mm | - | 0 W/m² | - |
| 1777774803 | 18.89° C | 52% | 1019.3 hPa | 0 mm | - | 0 W/m² | - |
| 1777774500 | 18.89° C | 51% | 1019.5 hPa | 0 mm | - | 0 W/m² | - |
| 1777774197 | 19.44° C | 51% | 1019.4 hPa | 0 mm | - | 0 W/m² | - |
| 1777773895 | 19.44° C | 50% | 1019.4 hPa | 0 mm | - | 0 W/m² | - |
| 1777773591 | 19.44° C | 50% | 1019.2 hPa | 0 mm | - | 0 W/m² | - |
| 1777773288 | 19.44° C | 50% | 1019.4 hPa | 0 mm | - | 0 W/m² | - |
| 1777772984 | 19.44° C | 50% | 1019.3 hPa | 0 mm | - | 0 W/m² | - |
| 1777772681 | 20° C | 49% | 1019.2 hPa | 0 mm | - | 0 W/m² | - |
| 1777772379 | 20° C | 48% | 1019.2 hPa | 0 mm | - | 0 W/m² | - |
| 1777772076 | 20.56° C | 47% | 1019.2 hPa | 0 mm | - | 0 W/m² | - |
* Rain latest hour (hover to see other rain measurements)
** Current wind speed in m/s (hover to see current wind gust speed)